Regional Weather Roundup
Issued by NWS

Home | Current Version | Previous Version | Text Only | Print | Product List | Glossary Off
Versions: 1 2 3 4 5 6 7 8 9 10 11 12 13 14 15 16 17 18 19 20 21 22 23 24 25 26 27 28 29 30 31 32 33 34 35 36 37 38 39 40 41 42 43 44 45 46 47 48 49 50

000
ASUS43 KIND 311159
RWRIN

WEATHER ROUNDUP FOR INDIANA
NATIONAL WEATHER SERVICE INDIANAPOLIS IN
800 AM EDT MON AUG 31 2015

NOTE: "FAIR" INDICATES FEW OR NO CLOUDS BELOW 12,000 FEET WITH NO
SIGNIFICANT WEATHER AND/OR OBSTRUCTIONS TO VISIBILITY.

* - STATION DOES NOT REPORT WEATHER SUCH AS PRECIPITATION OR FOG.

+ - STATION NOT QUALITY CONTROLLED BY THE NATIONAL WEATHER SERVICE.
    USE DATA WITH CAUTION...ESPECIALLY DEWPOINT AND RELATIVE
    HUMIDITY OBSERVATIONS.

INZ001>003-010>013-019-020-311300-
NORTHWEST INDIANA

CITY           SKY/WX    TMP DP  RH WIND       PRES   REMARKS
GARY /AIRPORT/ CLOUDY    66  64  94 CALM      30.07R FOG
KNOX *+        CLOUDY    61  61 100 CALM      30.07R VSB<1/4
MONTICELLO +   MOCLDY    67  67 100 S5        30.07R FOG
6HR MIN TEMP:  67; 6HR MAX TEMP:  70;

RENSSELAER +   FOG       59  59 100 CALM      30.08R VSB 1/2
VALPARAISO     FOG       64  63  94 CALM      30.08R VSB<1/4

$$

LMZ046-743>745-311300-
SOUTHERN LAKE MICHIGAN

STATION/POSITION TIME  TEMP    WIND        PRES    WAVE
                       AIR SEA DIR/SP/G            HT
                 (UTC) (F)     (DEG/KT/KT) (MB)    (FT)
BURNS HARBOR     1100   68     190/  5/  5 1017.9R
MICHIGAN CITY    1100   67      CALM  /  1   N/A
5NW MICH CITY    1100   69 71  200/  2/  4   N/A     0

$$

INZ004-005-014>016-021>024-311300-
NORTH CENTRAL INDIANA

CITY           SKY/WX    TMP DP  RH WIND       PRES   REMARKS
ELKHART        FOG       63  63 100 CALM      30.08R VSB 1/4
GOSHEN         FOG       64  63  96 CALM      30.08R VSB<1/4
6HR MIN TEMP:  62; 6HR MAX TEMP:  64;

SOUTH BEND     MOCLDY    63  62  97 SE5       30.08R FOG
6HR MIN TEMP:  60; 6HR MAX TEMP:  63;

WARSAW +         N/A     63  63 100 CALM      30.08R FOG

$$

INZ006>009-017-018-025>027-311300-
NORTHEAST INDIANA

CITY           SKY/WX    TMP DP  RH WIND       PRES   REMARKS
ANGOLA *+      CLOUDY    63  63 100 CALM      30.09R VSB 0
FORT WAYNE     CLEAR     65  64  97 S5        30.09R FOG
6HR MIN TEMP:  63; 6HR MAX TEMP:  67;


$$

INZ028-029-035-036-043>045-051>053-311300-
WEST CENTRAL INDIANA

CITY           SKY/WX    TMP DP  RH WIND       PRES   REMARKS
CRAWFORDSVL +  FOG       64  64 100 SE3       30.10R VSB 1
6HR MIN TEMP:  60; 6HR MAX TEMP:  64;

GREENCASTLE +  FOG       64  61  88 CALM      30.11R VSB<1/4
LAFAYETTE      CLEAR     65  65 100 CALM      30.08R FOG
6HR MIN TEMP:  63; 6HR MAX TEMP:  69;

TERRE HAUTE    PTCLDY    66  65  96 SE3       30.10R FOG
6HR MIN TEMP:  62; 6HR MAX TEMP:  67;


$$

INZ030>032-037>040-046>048-054>057-064-065-311300-
CENTRAL INDIANA

CITY           SKY/WX    TMP DP  RH WIND       PRES   REMARKS
FRANKFORT +    FOG      N/A N/A N/A CALM      30.11R VSB 1/4
GREENWOOD *+   CLOUDY    68  64  88 CALM      30.11R
INDIANAPOLIS   MOCLDY    68  66  93 W3        30.09R FOG
6HR MIN TEMP:  67; 6HR MAX TEMP:  70;

-EAGLE CREEK   PTCLDY    68  67  96 CALM      30.10R FOG
6HR MIN TEMP:  66; 6HR MAX TEMP:  70;

KOKOMO *+      CLEAR     66  63  88 SW5       30.09R
6HR MIN TEMP:  63; 6HR MAX TEMP:  66;

MT COMFORT *+  PTCLDY    66 N/A N/A CALM      30.11R
SHELBYVILLE    PTCLDY    69  66  90 S6        30.11R FOG
6HR MIN TEMP:  66; 6HR MAX TEMP:  71;


$$

INZ033-034-041-042-049-050-058-059-311300-
EAST CENTRAL INDIANA

CITY           SKY/WX    TMP DP  RH WIND       PRES   REMARKS
MUNCIE         PTCLDY    68  66  93 SW5       30.11R
6HR MIN TEMP:  67; 6HR MAX TEMP:  70;


$$

INZ060-061-067>069-081>083-085>088-311300-
SOUTHWEST INDIANA

CITY           SKY/WX    TMP DP  RH WIND       PRES   REMARKS
EVANSVILLE     CLEAR     67  65  93 CALM      30.11R
6HR MIN TEMP:  66; 6HR MAX TEMP:  70;

HUNTINGBURG *+ CLEAR     66  63  88 SE3       30.12R VSB 1
6HR MIN TEMP:  66; 6HR MAX TEMP:  70;


$$

INZ062-063-066-070>080-084-089>092-311300-
SOUTH CENTRAL AND SOUTHEAST INDIANA

CITY           SKY/WX    TMP DP  RH WIND       PRES   REMARKS
BLOOMINGTON    PTCLDY    66  65  96 CALM      30.11R
6HR MIN TEMP:  63; 6HR MAX TEMP:  68;

MADISON *+       N/A     64  63  94 CALM      30.15R VSB 1/2
SEYMOUR +      CLOUDY    66  66 100 CALM      30.11R FOG

$$



USA.gov is the U.S. government's official web portal to all federal, state and local government web resources and services.